SCP
0 0 0 0 0 0 0 0 0 0 0 0 0 0 0 0 0 0 1 1 2 2 2 2 2 2 1 1 1 1 1 1 1 1 1 1 0 0 0 0 0 0 0
0 0 0 0 0 0 0 0 0 0 0 0 0 0 0 0 0 0 1 1 1 1 2 2 2 2 1 1 1 1 1 1 1 1 1 1 1 0 0 0 0 0 0
0 0 0 0 0 0 0 0 0 0 0 0 0 0 0 0 0 0 0 1 1 1 1 1 1 1 1 1 1 1 1 1 1 1 1 1 1 1 1 0 0 0 0
0 0 0 0 0 0 0 0 0 0 0 0 0 0 0 0 0 0 0 0 0 0 1 1 1 1 1 1 1 1 1 1 1 1 1 1 1 1 1 1 1 0 0
1 1 0 0 0 0 0 0 0 0 0 0 0 0 0 0 0 0 0 0 0 0 0 1 1 1 1 1 1 1 1 1 1 1 1 1 1 1 1 1 1 1 1
1 1 1 1 1 1 1 0 0 0 0 0 0 0 0 0 0 0 0 0 0 0 0 0 1 1 1 1 1 1 1 1 1 1 1 1 1 1 1 1 1 1 1
2 2 2 1 1 1 1 1 0 0 0 0 0 0 0 0 0 0 0 0 0 0 0 0 0 1 1 1 1 1 1 1 1 1 1 1 1 1 1 1 1 0 0
2 2 2 2 1 1 1 1 1 1 1 1 1 0 0 0 0 0 0 0 0 0 0 0 0 0 0 1 1 1 1 1 1 1 1 1 1 1 1 1 0 0 0
2 2 2 2 1 1 1 1 1 1 1 1 1 1 1 1 0 0 0 0 0 0 0 0 0 0 0 0 0 0 1 1 1 1 1 1 1 1 1 1 1 1 1
1 2 2 1 1 1 1 1 1 1 1 1 1 1 1 1 1 1 1 0 0 0 0 0 0 0 0 0 1 1 1 1 1 1 1 1 1 1 1 1 1 1 1
1 1 1 1 1 1 1 1 1 1 1 2 2 2 1 1 1 1 1 1 0 0 0 0 0 0 0 0 1 1 1 1 1 1 1 1 1 1 1 1 1 1 1
1 1 1 1 1 1 1 2 2 2 2 2 2 2 1 1 1 1 1 0 0 0 0 0 0 0 0 0 1 1 1 0 1 1 1 1 1 1 1 1 1 1 1
0 0 1 1 1 1 1 2 2 2 1 1 1 1 1 1 1 0 0 0 0 0 0 0 0 0 0 0 0 0 0 0 0 0 0 1 1 1 1 1 1 1 1
0 0 1 1 1 1 2 2 2 2 1 1 1 1 1 0 0 0 0 0 0 0 0 0 0 0 0 0 0 0 0 0 0 0 0 0 0 0 1 1 1 1 1
0 0 1 1 1 1 2 2 2 2 1 1 1 0 0 0 0 0 0 0 0 0 0 0 0 0 0 0 0 0 0 0 0 0 0 0 0 0 0 0 0 1 1
0 0 0 0 1 1 1 2 2 1 1 0 0 0 0 0 0 0 0 0 0 0 0 0 0 0 0 0 0 0 0 0 0 0 0 0 0 0 0 0 0 0 0
1 1 1 1 1 1 1 2 1 1 1 0 0 0 0 0 0 0 0 0 0 0 0 0 0 0 0 0 0 0 0 0 0 0 0 0 0 0 0 0 0 0 0
1 1 1 1 1 1 1 1 1 1 0 0 0 1 1 1 1 1 1 1 0 0 0 0 0 0 0 0 0 0 0 0 0 0 0 0 0 0 0 0 0 0 0
1 1 1 1 1 1 1 1 1 1 1 1 1 1 1 1 1 1 1 1 0 0 0 0 0 0 0 0 0 0 0 0 0 0 0 0 0 0 0 0 0 0 0
1 1 1 1 1 2 1 1 1 1 1 1 1 1 1 1 1 1 1 1 0 0 0 0 0 0 0 0 0 0 0 0 0 0 0 0 0 0 0 0 0 0 0
1 1 1 1 2 2 1 1 1 1 1 1 0 1 1 1 1 1 1 0 0 0 0 0 0 0 0 0 0 0 0 0 0 0 0 0 0 0 0 0 0 0 0
1 1 1 1 2 2 1 1 1 1 1 0 0 1 1 1 1 1 0 0 0 0 0 0 0 0 0 0 0 0 0 0 0 0 0 0 0 0 0 0 0 0 0
1 1 1 1 1 1 1 1 1 0 0 0 0 1 1 1 1 0 0 0 0 0 0 0 0 0 0 0 0 0 0 0 0 0 0 0 0 0 0 0 0 0 0
1 1 1 1 1 1 0 1 1 0 0 0 0 0 0 0 0 0 0 0 0 0 0 0 0 0 0 0 0 0 0 0 0 0 0 0 0 0 0 0 0 0 0
2 1 1 1 1 0 0 0 0 0 0 0 0 0 0 0 0 0 0 0 0 0 0 0 0 0 0 0 0 0 0 0 0 0 0 0 0 0 0 0 0 0 0
2 2 1 1 0 0 0 0 0 0 0 0 0 0 0 0 0 0 0 0 0 0 0 0 0 0 0 0 0 0 0 0 0 0 0 0 0 0 0 0 0 0 0
Wind_Speed
2 2 2 1 1 1 2 2 1 2 2 1 1 2 3 3 4 3 3 10 11 11 11 11 11 11 11 11 10 10 10 9 9 8 8 8 8 7 7 7 7 6 7
2 2 2 2 2 2 2 2 2 2 1 1 1 2 2 3 3 4 3 5 9 10 10 11 11 11 10 10 10 10 10 10 9 9 9 9 9 9 8 8 8 7 7
3 2 2 2 2 2 2 1 1 1 1 2 2 2 2 2 3 3 3 2 3 7 9 9 10 10 10 10 10 9 9 8 8 9 10 10 10 9 9 9 9 8 7
3 2 2 1 1 1 2 2 2 2 1 2 1 1 1 1 2 2 2 3 2 2 4 7 7 8 9 9 9 9 9 8 8 8 9 10 10 10 10 9 9 8 7
3 2 2 1 1 2 1 2 2 2 2 2 1 1 1 1 1 2 3 3 3 2 1 3 4 5 7 8 8 9 9 8 8 7 8 9 9 9 9 8 8 7 6
2 2 2 1 2 2 1 2 2 2 2 2 2 2 2 1 1 1 2 2 2 3 2 1 1 1 3 4 5 7 7 6 6 7 7 8 8 7 7 7 7 6 6
2 2 1 1 2 2 2 2 2 2 1 2 2 2 3 3 2 1 1 2 2 2 2 2 1 1 0 1 1 1 2 3 5 6 6 7 7 7 7 7 6 6 5
2 2 2 2 2 2 1 2 2 2 1 1 2 2 1 2 3 3 2 2 2 2 2 2 1 1 1 0 1 2 1 1 1 3 5 5 6 7 7 7 6 6 5
1 2 2 2 2 2 2 2 2 3 1 1 2 3 3 2 0 2 2 3 3 3 2 2 2 1 1 0 0 1 1 0 1 1 3 4 4 6 7 7 7 6 6
1 1 2 2 2 2 2 2 2 2 2 1 1 1 2 4 3 1 1 2 2 2 2 2 2 1 0 0 1 3 2 1 0 1 2 3 4 4 6 7 7 7 6
1 1 2 2 2 1 1 1 1 1 1 2 1 1 1 1 2 3 1 0 1 2 1 2 1 1 1 1 1 3 3 3 2 1 1 2 2 4 5 5 6 6 5
1 1 2 2 1 1 1 1 1 1 1 1 1 1 2 2 2 2 2 1 1 1 1 1 1 1 1 1 2 5 5 5 5 5 4 4 3 3 4 4 4 4 4
0 0 2 2 1 1 1 1 1 1 1 1 1 1 1 1 2 3 4 2 1 0 1 1 0 1 2 1 1 4 5 6 7 7 7 7 6 5 5 5 4 3 3
1 1 2 2 2 2 2 2 2 1 1 1 2 1 1 1 2 4 4 4 2 0 1 0 1 1 1 1 2 4 3 7 7 7 7 7 7 7 6 6 6 5 5
2 2 2 2 2 3 2 2 2 1 2 2 1 1 1 1 2 2 3 4 4 3 1 1 0 0 1 2 2 2 2 6 7 7 7 7 7 7 7 7 6 6 6
2 3 3 2 2 2 2 2 2 2 2 1 1 2 1 0 1 1 2 2 2 3 2 1 1 1 1 3 4 2 3 6 6 6 6 6 7 7 7 7 7 7 7
3 3 3 3 2 2 2 2 2 2 3 2 2 2 2 1 1 1 1 1 2 3 3 1 1 1 2 2 2 2 2 2 2 5 5 6 6 7 6 6 6 6 6
3 3 3 3 3 2 2 3 2 3 3 3 2 2 2 1 2 1 1 2 2 3 4 4 1 1 1 2 2 2 2 2 1 3 4 4 5 5 5 4 5 5 5
3 3 3 3 2 2 2 2 3 3 3 2 2 2 1 2 2 1 2 2 2 3 3 4 2 1 1 2 2 1 2 1 1 2 2 2 3 3 3 3 4 4 3
4 3 3 3 2 2 2 2 3 3 3 3 2 2 2 2 2 2 2 3 4 4 4 4 3 1 1 1 2 1 1 0 0 1 1 1 1 1 1 2 2 3 2
4 3 3 2 2 2 2 3 3 3 3 3 3 3 2 4 4 3 3 3 4 4 4 3 3 2 1 1 1 1 1 0 1 0 0 0 0 1 1 1 2 2 2
3 4 3 3 3 2 3 4 4 3 3 3 3 2 2 4 5 6 6 6 6 5 5 3 2 2 2 2 2 2 2 1 1 1 1 1 1 1 2 1 2 3 3
4 4 3 3 3 2 4 4 5 4 3 2 2 2 2 2 3 3 4 5 4 4 6 5 4 4 3 4 3 3 2 2 2 2 2 1 1 2 2 3 4 5 5
4 3 3 3 3 2 3 4 5 4 3 2 2 2 2 1 2 3 3 3 2 1 2 3 4 4 4 4 5 5 5 2 0 0 2 1 1 2 2 2 4 5 5
4 3 2 3 3 2 3 4 5 3 3 2 2 2 2 2 2 4 3 2 1 1 0 2 3 3 4 5 5 3 2 2 0 1 1 2 1 1 2 2 3 5 6
4 4 3 3 3 2 3 4 5 3 2 2 1 1 2 2 2 4 3 2 1 1 0 1 1 1 1 2 4 5 4 3 2 1 2 2 1 1 1 2 2 2 3
Wind_Direction
158 158 163 163 175 177 179 183 189 187 190 190 167 158 141 147 156 162 174 182 184 185 185 186 188 190 194 197 197 198 201 202 202 200 201 203 202 201 203 201 201 202 204
157 155 158 166 181 191 191 187 189 177 170 144 138 139 144 152 162 165 170 183 185 187 191 192 193 193 196 200 201 203 206 208 208 207 208 211 211 210 210 209 210 212 210
152 148 157 174 198 189 178 152 131 106 117 115 106 120 139 146 148 170 173 176 186 194 197 198 197 198 199 202 203 205 206 208 210 210 212 212 214 214 214 215 215 215 212
155 151 149 176 189 152 140 136 127 109 91 92 92 102 112 127 146 158 162 165 167 186 201 200 201 208 209 209 211 210 210 210 211 212 214 215 217 218 217 220 218 216 215
156 151 148 169 155 128 130 146 129 129 121 109 105 81 59 88 142 148 152 156 156 158 170 191 204 210 220 224 223 218 215 213 214 215 216 215 214 213 210 211 211 209 205
163 152 154 154 137 119 117 119 131 131 137 134 99 58 41 41 64 132 154 141 137 142 144 166 186 215 228 239 237 227 220 216 216 219 222 219 213 208 204 201 199 200 199
162 139 130 121 124 133 148 137 134 130 133 125 92 50 30 27 30 41 92 110 122 140 130 121 112 90 42 52 43 150 201 210 214 213 214 212 207 200 195 196 195 189 190
169 151 146 151 145 135 129 135 135 135 190 160 133 115 48 10 14 37 60 91 100 95 86 93 96 103 106 89 63 83 107 187 206 212 209 204 197 190 189 188 184 181 178
129 134 143 144 144 146 160 171 162 156 185 232 169 148 153 187 310 4 32 57 71 80 83 82 83 62 79 72 24 55 80 181 208 200 193 180 178 185 186 186 185 181 178
117 138 137 136 140 148 163 187 168 167 161 200 248 184 167 160 155 139 18 37 58 71 81 93 88 81 60 22 72 72 66 50 101 198 199 180 179 182 182 183 182 182 180
62 103 124 126 131 146 162 159 156 163 168 181 193 169 114 102 128 144 157 30 37 35 68 98 100 84 52 56 73 73 65 57 69 98 131 158 169 174 177 176 175 178 177
26 62 103 104 111 115 125 152 152 154 156 158 163 154 154 159 166 144 151 154 122 3 42 74 92 86 74 61 84 83 78 68 70 73 77 87 98 118 133 144 161 173 172
40 40 96 97 90 87 75 94 95 83 104 122 139 150 158 167 156 144 139 145 145 227 41 29 38 102 101 79 80 96 85 82 76 71 71 74 78 87 99 104 109 114 114
174 144 115 102 82 72 69 77 84 55 74 84 85 94 106 136 146 148 150 147 132 70 45 8 14 64 92 95 89 88 86 88 87 83 81 82 86 88 87 86 86 89 88
148 128 117 104 86 78 75 78 66 43 67 73 79 88 94 110 139 151 148 154 148 156 203 221 84 296 120 100 99 84 81 92 93 93 92 92 91 91 90 88 83 82 86
119 117 112 103 90 82 77 76 65 57 70 53 79 78 67 86 130 136 155 156 144 147 156 181 175 163 140 127 120 96 93 101 95 95 96 96 94 93 91 88 87 84 86
126 117 115 108 96 78 71 82 77 76 76 53 50 78 73 75 84 119 137 135 132 130 130 127 77 97 108 123 120 103 101 86 92 100 98 95 96 97 94 91 88 85 87
125 122 116 108 105 90 81 90 93 78 79 70 57 68 58 72 58 89 121 128 137 133 133 132 92 86 121 152 138 135 136 125 108 109 102 96 94 94 95 95 91 85 82
121 115 115 114 112 103 93 94 103 97 84 76 76 81 76 87 69 77 100 108 113 113 112 126 123 100 95 124 112 119 122 82 140 134 121 114 105 110 111 106 99 93 87
125 120 119 120 120 108 97 95 100 96 83 69 65 73 78 94 109 116 111 111 115 111 110 117 114 95 78 100 102 118 117 347 221 145 118 129 135 144 148 135 128 119 106
133 128 119 110 102 101 102 107 106 108 97 82 67 63 73 87 98 110 119 126 126 124 124 121 119 105 91 115 167 192 158 159 319 228 128 245 225 308 292 252 213 186 161
124 119 118 111 96 87 101 115 118 112 110 108 96 70 66 67 72 86 104 117 132 140 144 139 144 151 185 191 182 166 147 125 281 259 157 253 182 241 258 252 242 219 207
125 117 119 113 104 98 104 104 109 113 111 113 118 110 88 77 78 89 90 91 101 125 148 158 159 179 186 199 173 163 165 165 203 215 148 237 253 250 254 245 235 226 222
132 125 139 134 125 111 103 106 111 105 103 98 108 125 121 113 106 112 106 91 86 109 162 164 177 193 196 192 184 182 183 176 272 254 142 182 254 247 255 258 245 220 221
132 125 127 133 128 111 107 113 114 109 102 89 84 99 115 114 118 115 110 110 81 0 28 158 179 193 191 181 169 139 132 126 256 277 188 168 223 243 268 266 257 236 230
147 143 149 150 142 140 135 127 120 117 114 99 66 67 106 123 131 127 125 132 156 246 357 43 42 30 162 180 168 168 170 165 177 245 228 170 199 144 300 281 258 252 244